This is the latest recevied weather packets stored in our database for station/object KG7FOQ-13. If no packets are shown the sender has not sent any weather packets the latest 10 day(s).
| Time | Temp. | Humidity | Pressure | Rain* | Wind** | Luminosity | Snow |
|---|---|---|---|---|---|---|---|
| 1777416771 | 13.89° C | 33% | 1018.7 hPa | 0 mm | - | - | - |
| 1777416470 | 13.89° C | 29% | 1018.7 hPa | 0 mm | - | - | - |
| 1777416170 | 13.89° C | 31% | 1018.7 hPa | 0 mm | - | - | - |
| 1777415869 | 13.89° C | 31% | 1018.7 hPa | 0 mm | - | - | - |
| 1777415569 | 13.89° C | 31% | 1018.7 hPa | 0 mm | - | - | - |
| 1777415268 | 13.89° C | 29% | 1018.8 hPa | 0 mm | - | - | - |
| 1777414968 | 13.89° C | 32% | 1018.8 hPa | 0 mm | - | - | - |
| 1777414667 | 13.89° C | 32% | 1018.9 hPa | 0 mm | - | - | - |
| 1777414367 | 13.89° C | 31% | 1019 hPa | 0 mm | - | - | - |
| 1777414066 | 13.33° C | 31% | 1019.2 hPa | 0 mm | - | - | - |
| 1777413766 | 13.33° C | 32% | 1019.2 hPa | 0 mm | - | - | - |
| 1777413463 | 13.89° C | 31% | 1019.2 hPa | 0 mm | - | - | - |
| 1777413162 | 13.89° C | 29% | 1019 hPa | 0 mm | - | - | - |
| 1777412861 | 13.33° C | 30% | 1019.2 hPa | 0 mm | - | - | - |
| 1777412260 | 13.89° C | 32% | 1019.3 hPa | 0 mm | - | - | - |
| 1777411659 | 12.78° C | 31% | 1019.5 hPa | 0 mm | - | - | - |
| 1777411359 | 13.33° C | 34% | 1019.5 hPa | 0 mm | - | - | - |
| 1777411058 | 13.33° C | 32% | 1019.5 hPa | 0 mm | - | - | - |
| 1777410757 | 13.33° C | 32% | 1019.5 hPa | 0 mm | - | - | - |
| 1777410472 | 12.78° C | 31% | 1019.6 hPa | 0 mm | - | - | - |
| 1777410472 | 13.33° C | 33% | 1019.5 hPa | 0 mm | - | - | - |
| 1777410457 | 12.22° C | 33% | 1019.5 hPa | 0 mm | - | - | - |
| 1777410157 | 12.78° C | 31% | 1019.6 hPa | 0 mm | - | - | - |
| 1777409856 | 13.33° C | 33% | 1019.5 hPa | 0 mm | - | - | - |
| 1777409557 | 12.78° C | 32% | 1019.5 hPa | 0 mm | - | - | - |
* Rain latest hour (hover to see other rain measurements)
** Current wind speed in m/s (hover to see current wind gust speed)